Ages Brookside, KY

7:24 PM EDT on July 24, 2016 (GMT -0400)
Harlan

Weather History for KI35 - October, 2013

Change the Weather History Date:

Tuesday, October 29, 2013

  Actual Average (KLOZ) Record (KLOZ)
Temperature  
Mean Temperature 60 °F 53 °F  
Max Temperature 68 °F 65 °F 80 °F (1971)
Min Temperature 53 °F 41 °F 19 °F (1976)
Degree Days  
Heating Degree Days 4 12  
Month to date heating degree days 236  
Since 1 July heating degree days 283  
Cooling Degree Days 0 0  
Month to date cooling degree days 17  
Year to date cooling degree days 1184  
Growing Degree Days 10 (Base 50)    
Moisture  
Dew Point 51 °F    
Average Humidity 79    
Maximum Humidity 100    
Minimum Humidity 46    
Precipitation  
Precipitation 0.00 in 0.10 in 1.06 in (1970)
Month to date precipitation 2.81  
Year to date precipitation 38.86  
Sea Level Pressure  
Sea Level Pressure 30.29 in    
Wind  
Wind Speed 1 mph (East)    
Max Wind Speed 9 mph    
Max Gust Speed -    
Visibility 7 miles    
Events      
T = Trace of Precipitation, MM = Missing Value Source: NWS Daily Summary

Daily Weather History Graph

Daily Weather History Graph

Search for Another Location

Airport or City:

Trip Planner

Search our weather history database for the weather conditions in past years. The results will help you decide how hot, cold, wet, or windy it might be!

Date:

Astronomy

Oct. 29, 2013 Rise Set
Actual Time 7:54 AM EDT 6:39 PM EDT
Civil Twilight 7:27 AM EDT 7:05 PM EDT
Nautical Twilight 6:57 AM EDT 7:36 PM EDT
Astronomical Twilight 6:27 AM EDT 8:06 PM EDT
Moon 2:51 AM EDT (10/29) 3:45 PM EDT (10/29)
Length of Visible Light 11h 38m
Length of Day
10h 44m
Waning Crescent, 25% of the Moon is Illuminated
Oct 29
Waning Crescent
Nov 3
New
Nov 10
First Quarter
Nov 17
Full
Nov 25
Last Quarter

Hourly Weather History & Observations

Time (EDT) Temp. Dew Point Humidity Pressure Visibility Wind Dir Wind Speed Gust Speed Precip Events Conditions
12:15 AM 53.6 °F 53.6 °F 100% 30.28 in 5.0 mi Calm Calm - N/A   Overcast
12:35 AM 55.4 °F 53.6 °F 94% 30.28 in 7.0 mi Calm Calm - N/A   Overcast
12:55 AM 53.6 °F 53.6 °F 100% 30.28 in 5.0 mi Calm Calm - N/A   Overcast
1:15 AM 53.6 °F 53.6 °F 100% 30.29 in 2.5 mi Calm Calm - N/A   Overcast
1:35 AM 53.6 °F 53.6 °F 100% 30.29 in 7.0 mi Calm Calm - N/A   Overcast
1:55 AM 53.6 °F 53.6 °F 100% 30.29 in 3.0 mi Calm Calm - N/A   Overcast
2:15 AM 53.6 °F 53.6 °F 100% 30.28 in 4.0 mi Calm Calm - N/A   Overcast
2:35 AM 53.6 °F 53.6 °F 100% 30.29 in 5.0 mi East 8.1 mph - N/A   Overcast
2:55 AM 53.6 °F 53.6 °F 100% 30.29 in 4.0 mi Calm Calm - N/A   Overcast
3:15 AM 53.6 °F 53.6 °F 100% 30.29 in 5.0 mi North - - N/A   Overcast
3:35 AM 53.6 °F 51.8 °F 94% 30.29 in 3.0 mi Calm Calm - N/A   Overcast
3:55 AM 53.6 °F 53.6 °F 100% 30.29 in 3.0 mi North - - N/A   Overcast
4:15 AM 53.6 °F 53.6 °F 100% 30.30 in 2.0 mi Calm Calm - N/A   Overcast
4:35 AM 53.6 °F 51.8 °F 94% 30.30 in 0.2 mi Calm Calm - N/A   Overcast
4:55 AM 53.6 °F 53.6 °F 100% 30.30 in 0.8 mi Calm Calm - N/A   Overcast
5:15 AM 53.6 °F 53.6 °F 100% 30.30 in 1.5 mi Calm Calm - N/A   Overcast
5:35 AM 53.6 °F 53.6 °F 100% 30.31 in 0.8 mi Calm Calm - N/A   Overcast
5:55 AM 53.6 °F 53.6 °F 100% 30.31 in 2.5 mi North - - N/A   Overcast
6:35 AM 53.6 °F 53.6 °F 100% 30.31 in 1.5 mi Calm Calm - N/A   Overcast
6:55 AM 53.6 °F 53.6 °F 100% 30.32 in 2.0 mi North - - N/A   Overcast
7:15 AM 53.6 °F 51.8 °F 94% 30.33 in 0.5 mi Calm Calm - N/A   Overcast
7:35 AM 53.6 °F 53.6 °F 100% 30.33 in 0.5 mi Calm Calm - N/A   Overcast
7:55 AM 53.6 °F 51.8 °F 94% 30.33 in 0.5 mi East 5.8 mph - N/A   Overcast
8:35 AM 53.6 °F 51.8 °F 94% 30.33 in 1.0 mi North - - N/A   Overcast
8:55 AM 53.6 °F 51.8 °F 94% 30.33 in 1.8 mi North - - N/A   Overcast
9:15 AM 53.6 °F 53.6 °F 100% 30.35 in 5.0 mi North - - N/A   Overcast
9:35 AM 55.4 °F 53.6 °F 94% 30.33 in 7.0 mi North - - N/A   Overcast
10:15 AM 55.4 °F 53.6 °F 94% 30.33 in 10.0 mi North - - N/A   Overcast
10:35 AM 59.0 °F 53.6 °F 82% 30.35 in 10.0 mi Calm Calm - N/A   Overcast
10:55 AM 59.0 °F 53.6 °F 82% 30.36 in 10.0 mi Calm Calm - N/A   Overcast
11:15 AM 62.6 °F 53.6 °F 72% 30.35 in 10.0 mi Calm Calm - N/A   Mostly Cloudy
11:35 AM 62.6 °F 53.6 °F 72% 30.35 in 10.0 mi East 3.5 mph - N/A   Mostly Cloudy
11:55 AM 62.6 °F 51.8 °F 68% 30.35 in 10.0 mi Calm Calm - N/A   Mostly Cloudy
12:15 PM 62.6 °F 51.8 °F 68% 30.34 in 10.0 mi NE 3.5 mph - N/A   Mostly Cloudy
12:35 PM 64.4 °F 51.8 °F 64% 30.34 in 10.0 mi ESE 3.5 mph - N/A   Mostly Cloudy
1:15 PM 64.4 °F 50.0 °F 59% 30.32 in 10.0 mi Calm Calm - N/A   Scattered Clouds
1:35 PM 64.4 °F 50.0 °F 59% 30.31 in 10.0 mi Calm Calm - N/A   Mostly Cloudy
1:55 PM 64.4 °F 50.0 °F 59% 30.30 in 10.0 mi Calm Calm - N/A   Overcast
2:15 PM 64.4 °F 50.0 °F 59% 30.29 in 10.0 mi Calm Calm - N/A   Overcast
2:35 PM 64.4 °F 46.4 °F 52% 30.28 in 10.0 mi Calm Calm - N/A   Overcast
2:55 PM 64.4 °F 46.4 °F 52% 30.28 in 10.0 mi Calm Calm - N/A   Overcast
3:15 PM 68.0 °F 46.4 °F 46% 30.26 in 10.0 mi Calm Calm - N/A   Mostly Cloudy
3:35 PM 66.2 °F 44.6 °F 46% 30.26 in 10.0 mi West 5.8 mph - N/A   Scattered Clouds
3:55 PM 66.2 °F 46.4 °F 49% 30.26 in 10.0 mi Calm Calm - N/A   Mostly Cloudy
4:15 PM 64.4 °F 46.4 °F 52% 30.27 in 10.0 mi Calm Calm - N/A   Overcast
4:35 PM 64.4 °F 46.4 °F 52% 30.27 in 10.0 mi Calm Calm - N/A   Overcast
4:55 PM 64.4 °F 46.4 °F 52% 30.26 in 10.0 mi Calm Calm - N/A   Mostly Cloudy
5:15 PM 64.4 °F 46.4 °F 52% 30.26 in 10.0 mi Calm Calm - N/A   Mostly Cloudy
5:35 PM 64.4 °F 46.4 °F 52% 30.27 in 10.0 mi Calm Calm - N/A   Scattered Clouds
5:55 PM 64.4 °F 46.4 °F 52% 30.27 in 10.0 mi Calm Calm - N/A   Scattered Clouds
6:15 PM 62.6 °F 48.2 °F 59% 30.26 in 10.0 mi Calm Calm - N/A   Mostly Cloudy
6:35 PM 62.6 °F 50.0 °F 63% 30.26 in 10.0 mi Calm Calm - N/A   Scattered Clouds
6:55 PM 60.8 °F 50.0 °F 68% 30.26 in 10.0 mi Calm Calm - N/A   Scattered Clouds
7:15 PM 59.0 °F 50.0 °F 72% 30.25 in 10.0 mi Calm Calm - N/A   Scattered Clouds
7:35 PM 60.8 °F 48.2 °F 63% 30.26 in 10.0 mi Calm Calm - N/A   Unknown
7:55 PM 60.8 °F 50.0 °F 68% 30.26 in 10.0 mi Calm Calm - N/A   Unknown
8:15 PM 59.0 °F 50.0 °F 72% 30.25 in 10.0 mi Calm Calm - N/A   Unknown
8:35 PM 59.0 °F 50.0 °F 72% 30.25 in 10.0 mi NE 5.8 mph - N/A   Unknown
8:55 PM 59.0 °F 50.0 °F 72% 30.25 in 10.0 mi Calm Calm - N/A   Unknown
9:15 PM 55.4 °F 51.8 °F 88% 30.25 in 10.0 mi East 5.8 mph - N/A   Unknown
9:35 PM 59.0 °F 50.0 °F 72% 30.25 in 10.0 mi Calm Calm - N/A   Unknown
9:55 PM 57.2 °F 50.0 °F 77% 30.25 in 10.0 mi Calm Calm - N/A   Unknown
10:15 PM 59.0 °F 50.0 °F 72% 30.26 in 10.0 mi Calm Calm - N/A   Unknown
10:35 PM 55.4 °F 51.8 °F 88% 30.26 in 10.0 mi Calm Calm - N/A   Unknown
10:55 PM 55.4 °F 51.8 °F 88% 30.25 in 10.0 mi Calm Calm - N/A   Unknown
11:15 PM 57.2 °F 51.8 °F 82% 30.25 in 10.0 mi ESE 9.2 mph - N/A   Unknown
11:35 PM 55.4 °F 51.8 °F 88% 30.25 in 10.0 mi Calm Calm - N/A   Unknown
11:55 PM 55.4 °F 51.8 °F 88% 30.25 in 10.0 mi Calm Calm - N/A   Unknown